International Skating Union - Official Site

ISU World Single Distances Championships 2017
February 9-12,2017

Draw | Lap Times | Index

Referee: Bjørn  PETTERSEN  (NOR)
Starter: Garth  LINDER  (USA)
StartTime: EndTime: Air Temp: Ice Temp: Humidity:
17:15 18:10 15℃ -9℃ 35%
Result 3000m Ladies
Rankings as of Feb 12 2017 8:48PM
Rank: No.: Name: Nation: Time: Behind:
1 159 Ireen  Wüst NED NED 3:59.05200m - 19.57 - (19.5)
600m - 49.41 - (29.8)
1000m - 1:19.72 - (30.3)
1400m - 1:50.45 - (30.7)
1800m - 2:21.57 - (31.1)
2200m - 2:53.16 - (31.5)
2600m - 3:25.70 - (32.5)
3000m - 3:59.05 - (33.3)
2 121 Martina  Sáblíková CZE CZE 3:59.65200m - 20.01 - (20.0)
600m - 50.23 - (30.2)
1000m - 1:21.36 - (31.1)
1400m - 1:52.76 - (31.4)
1800m - 2:24.16 - (31.4)
2200m - 2:55.73 - (31.5)
2600m - 3:27.55 - (31.8)
3000m - 3:59.65 - (32.1)
0.60
3 149 Antoinette  de Jong NED NED 4:01.99200m - 20.02 - (20.0)
600m - 50.38 - (30.3)
1000m - 1:20.93 - (30.5)
1400m - 1:52.17 - (31.2)
1800m - 2:23.95 - (31.7)
2200m - 2:56.04 - (32.0)
2600m - 3:28.82 - (32.7)
3000m - 4:01.99 - (33.1)
2.94
4 105 Ivanie  Blondin CAN CAN 4:02.45200m - 20.08 - (20.0)
600m - 51.19 - (31.1)
1000m - 1:22.30 - (31.1)
1400m - 1:53.93 - (31.6)
1800m - 2:25.30 - (31.3)
2200m - 2:57.19 - (31.8)
2600m - 3:29.59 - (32.4)
3000m - 4:02.45 - (32.8)
3.40
5 154 Yvonne  Nauta NED NED 4:02.56200m - 20.06 - (20.0)
600m - 50.75 - (30.6)
1000m - 1:21.90 - (31.1)
1400m - 1:53.11 - (31.2)
1800m - 2:24.59 - (31.4)
2200m - 2:56.66 - (32.0)
2600m - 3:29.32 - (32.6)
3000m - 4:02.56 - (33.2)
3.51
6 141 Bo-Reum  Kim KOR KOR 4:03.85200m - 20.45 - (20.4)
600m - 51.95 - (31.5)
1000m - 1:23.75 - (31.8)
1400m - 1:55.42 - (31.6)
1800m - 2:27.20 - (31.7)
2200m - 2:59.28 - (32.0)
2600m - 3:31.57 - (32.2)
3000m - 4:03.85 - (32.2)
4.80
7 171 Olga  Graf RUS RUS 4:04.45200m - 20.59 - (20.5)
600m - 51.56 - (30.9)
1000m - 1:23.12 - (31.5)
1400m - 1:54.73 - (14.7)
1800m - 2:26.73 - (32.0)
2200m - 2:58.92 - (32.1)
2600m - 3:31.65 - (32.7)
3000m - 4:04.45 - (32.8)
5.40
8 137 Miho  Takagi JPN JPN 4:04.50200m - 20.11 - (20.1)
600m - 50.80 - (30.6)
1000m - 1:22.18 - (31.3)
1400m - 1:53.98 - (31.8)
1800m - 2:26.16 - (32.1)
2200m - 2:58.33 - (32.1)
2600m - 3:31.04 - (32.7)
3000m - 4:04.50 - (33.4)
5.45
9 110 Isabelle  Weidemann CAN CAN 4:04.54200m - 20.17 - (20.1)
600m - 51.68 - (31.5)
1000m - 1:22.97 - (31.2)
1400m - 1:54.85 - (31.8)
1800m - 2:26.88 - (32.0)
2200m - 2:59.00 - (32.1)
2600m - 3:31.56 - (32.5)
3000m - 4:04.54 - (32.9)
5.49
10 175 Natalia  Voronina RUS RUS 4:05.00200m - 20.13 - (20.1)
600m - 51.69 - (31.5)
1000m - 1:23.04 - (31.3)
1400m - 1:54.72 - (31.6)
1800m - 2:26.66 - (31.9)
2200m - 2:59.07 - (32.4)
2600m - 3:31.86 - (32.7)
3000m - 4:05.00 - (33.1)
5.95
11 176 Anna  Yurakova RUS RUS 4:05.12200m - 20.15 - (20.1)
600m - 51.10 - (30.9)
1000m - 1:22.43 - (31.3)
1400m - 1:54.11 - (31.6)
1800m - 2:26.10 - (31.9)
2200m - 2:58.67 - (32.5)
2600m - 3:31.64 - (32.9)
3000m - 4:05.12 - (33.4)
6.07
12 130 Bente  Kraus GER GER 4:05.38200m - 20.26 - (20.2)
600m - 51.11 - (30.8)
1000m - 1:22.45 - (31.3)
1400m - 1:54.45 - (32.0)
1800m - 2:26.92 - (32.4)
2200m - 2:59.29 - (32.3)
2600m - 3:32.13 - (32.8)
3000m - 4:05.38 - (33.2)
6.33
13 180 Mia  Manganello USA USA 4:05.48200m - 20.33 - (20.3)
600m - 51.79 - (31.4)
1000m - 1:23.14 - (31.3)
1400m - 1:54.89 - (31.7)
1800m - 2:26.78 - (31.8)
2200m - 2:58.82 - (32.0)
2600m - 3:31.57 - (32.7)
3000m - 4:05.48 - (33.9)
6.43
14 104 Marina  Zueva BLR BLR 4:06.24200m - 20.54 - (20.5)
600m - 52.08 - (31.5)
1000m - 1:24.37 - (32.2)
1400m - 1:56.31 - (31.9)
1800m - 2:28.36 - (32.0)
2200m - 3:00.67 - (32.3)
2600m - 3:33.25 - (32.5)
3000m - 4:06.24 - (32.9)
7.19
15 136 Ayano  Sato JPN JPN 4:08.23200m - 19.66 - (19.6)
600m - 51.07 - (31.4)
1000m - 1:22.55 - (31.4)
1400m - 1:54.62 - (32.0)
1800m - 2:27.38 - (32.7)
2200m - 3:00.93 - (33.5)
2600m - 3:34.80 - (33.8)
3000m - 4:08.23 - (33.4)
9.18
16 126 Stephanie  Beckert GER GER 4:09.13200m - 21.38 - (21.3)
600m - 53.45 - (32.0)
1000m - 1:25.60 - (32.1)
1400m - 1:57.96 - (32.3)
1800m - 2:30.41 - (32.4)
2200m - 3:03.14 - (32.7)
2600m - 3:36.12 - (32.9)
3000m - 4:09.13 - (33.0)
10.08
17 166 Katarzyna  Wozniak POL POL 4:10.23200m - 20.08 - (20.0)
600m - 51.09 - (31.0)
1000m - 1:22.26 - (31.1)
1400m - 1:54.17 - (31.9)
1800m - 2:26.53 - (32.3)
2200m - 2:59.71 - (33.1)
2600m - 3:34.11 - (34.4)
3000m - 4:10.23 - (36.1)
11.18
18 122 Nikola  Zdráhalova CZE CZE 4:10.46200m - 19.79 - (19.7)
600m - 51.20 - (31.4)
1000m - 1:22.90 - (31.7)
1400m - 1:55.34 - (32.4)
1800m - 2:28.82 - (33.4)
2200m - 3:02.67 - (33.8)
2600m - 3:36.61 - (33.9)
3000m - 4:10.46 - (33.8)
11.41
19 132 Francesca  Lollobrigida ITA ITA 4:10.58200m - 20.11 - (20.1)
600m - 51.19 - (31.0)
1000m - 1:23.08 - (31.8)
1400m - 1:55.48 - (32.4)
1800m - 2:28.69 - (33.2)
2200m - 3:02.11 - (33.4)
2600m - 3:36.27 - (34.1)
3000m - 4:10.58 - (34.3)
11.53
20 102 Jelena  Peeters BEL BEL 4:12.51200m - 20.64 - (20.6)
600m - 51.88 - (31.2)
1000m - 1:23.64 - (31.7)
1400m - 1:55.93 - (32.2)
1800m - 2:28.60 - (32.6)
2200m - 3:02.13 - (33.5)
2600m - 3:36.65 - (34.5)
3000m - 4:12.51 - (35.8)
13.46